Tracking 29493 objects as of 8-Sep-2024
HD Live streaming from Space Station
objects crossing your sky now

FENGYUN 1C DEB

Track FENGYUN 1C DEB now!
10-day predictions


NORAD ID: 30531
Int'l Code: 1999-025AJV
Perigee: 739.9 km
Apogee: 797.4 km
Inclination: 102.3 °
Period: 100.1 minutes
Semi major axis: 7139 km
RCS: 0.0087 m2 (small)
Launch date: May 10, 1999
Source: People's Republic of China (PRC)
Launch site: Taiyaun Space Center, China (TSC)

Note: This is SATELLITE DEBRIS
Your satellite tracking list
Your tracking list is empty




NASA's NSSDC Master Catalog

Two Line Element Set (TLE):
1 30531U 99025AJV 24251.86939982  .00054310  00000-0  17271-1 0  9997
2 30531 102.3203 220.4716 0040260 350.5044   9.5364 14.39091349910101
Source of the keplerian elements: AFSPC